Location: St. Andrews
(45.0670°N, 67.0330°W)
Time: 22:26:35
(UTC-03:00)

Amateur Radio Satellites - All Passes

Search period start: 24 October 2014 21:56
Search period end: 25 October 2014 21:56
Location: St. Andrews, 45.0670°N, 67.0330°W

Satellite Date Start Highest point End Downlink Frequencies (MHz)
Time Altitude Azimuth
SO-50 24 Oct 21:59:27 22:04:15 60° 51° (NE) 22:09:05 436.795 FM
ZACube-1 24 Oct 22:39:37 22:44:09 63° 74° (ENE) 22:48:38 437.345 MHz
RS-15 24 Oct 22:40:50 22:51:19 53° 113° (ESE) 23:01:43 29.354 - 29.394 USB, Beacon 29.352 USB
AO-40 24 Oct 22:42:32 00:15:29 19° 225° (SW) 02:53:08 Beacon 2401.320
UKube-1 24 Oct 22:45:35 22:49:44 43° 261° (W) 22:53:55 145.840 MHz, 145.915 MHz
HO-68 24 Oct 23:04:06 23:09:32 23° 269° (W) 23:15:02 435.675 MHz FM
UOSAT-12 24 Oct 23:24:06 23:28:38 43° 47° (NE) 23:33:05 437.025 FM, 437.400 FM
FUNcube-1 24 Oct 23:24:36 23:29:01 46° 261° (W) 23:33:23 145.950 - 145.970 MHz USB
Oscar 11 24 Oct 23:28:41 23:31:45 19° 268° (W) 23:34:50 145.825 FM, Beacon 2401.500 USB
KITSAT 1 24 Oct 23:29:29 23:36:19 32° 253° (WSW) 23:43:09 435.175 FM
SO-50 24 Oct 23:40:53 23:44:25 20° 248° (WSW) 23:47:58 436.795 FM
ZACube-1 25 Oct 00:18:23 00:20:56 15° 270° (W) 00:23:29 437.345 MHz
MaSat-1 25 Oct 00:18:30 00:22:24 43° 113° (ESE) 00:25:58 437.345 MHz
RS-15 25 Oct 00:53:04 01:03:42 54° 318° (NW) 01:14:26 29.354 - 29.394 USB, Beacon 29.352 USB
UOSAT-12 25 Oct 01:04:36 01:08:36 28° 246° (WSW) 01:12:33 437.025 FM, 437.400 FM
MaSat-1 25 Oct 01:55:15 01:58:09 19° 308° (NW) 02:00:52 437.345 MHz
Oscar 19 25 Oct 02:14:34 02:18:46 25° 94° (E) 02:22:57 437.125 CW, 437.150 USB
AO-27 25 Oct 02:33:11 02:36:21 16° 90° (E) 02:39:29 436.795 MHz FM
JAS-1B 25 Oct 02:50:40 02:57:06 50° 100° (E) 03:04:43 435.800 - 435.900 CW/SSB
AO-Echo 25 Oct 02:54:39 02:59:26 33° 96° (E) 03:04:12 ?
Oscar 16 25 Oct 02:59:46 03:04:53 66° 102° (ESE) 03:09:58 437.025 USB, Beacon 2401.1428
RS-15 25 Oct 03:10:14 03:19:15 28° 350° (N) 03:28:25 29.354 - 29.394 USB, Beacon 29.352 USB
Uribyol 2 25 Oct 03:19:34 03:24:32 43° 98° (E) 03:29:27 436.500 FM
ITAMSAT 1 25 Oct 03:25:34 03:30:37 46° 99° (E) 03:35:36 435.822 SSB
PCSat 25 Oct 03:26:24 03:29:34 16° 104° (ESE) 03:32:45 145.825 MHz
Gurwin Techsat 1B 25 Oct 03:45:55 03:50:53 39° 97° (E) 03:55:49 435.225 FM
Oscar 19 25 Oct 03:53:27 03:58:18 44° 291° (WNW) 04:03:07 437.125 CW, 437.150 USB
OPAL 25 Oct 03:54:18 03:56:02 12° 52° (NE) 03:57:46 ?
TMSAT-1 25 Oct 03:57:08 04:02:02 36° 97° (E) 04:06:54 436.925 FM
AO-27 25 Oct 04:11:10 04:16:24 71° 287° (WNW) 04:21:35 436.795 MHz FM
AO-7 25 Oct 04:25:03 04:30:54 20° 90° (E) 04:36:42 29.400 - 29.500 MHz
AO-Echo 25 Oct 04:33:22 04:38:11 36° 293° (WNW) 04:43:00 ?
Oscar 16 25 Oct 04:40:15 04:43:44 19° 300° (WNW) 04:47:12 437.025 USB, Beacon 2401.1428
Uosat F 25 Oct 04:41:17 04:43:46 14° 89° (E) 04:46:15 435.120 FM
JAS-1B 25 Oct 04:41:52 04:47:36 34° 296° (WNW) 04:54:15 435.800 - 435.900 CW/SSB
Sapphire 25 Oct 04:44:24 04:49:44 65° 117° (ESE) 04:55:08 437.095 MHz 1200 baud AX-25 AFSK
Uribyol 2 25 Oct 04:59:27 05:03:48 28° 296° (WNW) 05:08:08 436.500 FM
ITAMSAT 1 25 Oct 05:05:34 05:09:51 26° 297° (WNW) 05:14:06 435.822 SSB
PCSat 25 Oct 05:06:52 05:12:17 80° 302° (WNW) 05:17:45 145.825 MHz
Gurwin Techsat 1B 25 Oct 05:26:07 05:30:44 31° 295° (WNW) 05:35:21 435.225 FM
RS-15 25 Oct 05:26:09 05:35:57 34° 25° (NNE) 05:46:00 29.354 - 29.394 USB, Beacon 29.352 USB
OPAL 25 Oct 05:28:56 05:34:03 72° 71° (ENE) 05:39:08 ?
TMSAT-1 25 Oct 05:37:11 05:41:53 33° 294° (WNW) 05:46:33 436.925 FM
STRAND 1 25 Oct 05:39:00 05:40:34 11° 54° (NE) 05:42:09 ?
AO-27 25 Oct 05:53:21 05:54:58 11° 306° (NW) 05:56:36 436.795 MHz FM
JAS-2 25 Oct 06:08:37 06:15:38 35° 93° (E) 06:22:38 435.800 - 435.900 CW/SSB, 435.910 FM
AO-7 25 Oct 06:16:20 06:24:43 90° 290° (WNW) 06:33:04 29.400 - 29.500 MHz
Uosat F 25 Oct 06:18:05 06:23:09 78° 286° (WNW) 06:28:11 435.120 FM
Sapphire 25 Oct 06:29:11 06:33:37 25° 318° (NW) 06:38:06 437.095 MHz 1200 baud AX-25 AFSK
PCSat 25 Oct 06:52:54 06:56:35 18° 324° (NW) 07:00:17 145.825 MHz
OPAL 25 Oct 07:10:24 07:13:25 16° 268° (W) 07:16:26 ?
STRAND 1 25 Oct 07:13:45 07:18:51 72° 73° (ENE) 07:24:00 ?
Hamsat 25 Oct 07:20:33 07:24:46 77° 102° (ESE) 07:28:59 145.90 MHz
RS-15 25 Oct 07:39:02 07:50:13 81° 53° (NE) 08:01:53 29.354 - 29.394 USB, Beacon 29.352 USB
JAS-2 25 Oct 07:53:20 08:00:52 57° 291° (WNW) 08:08:28 435.800 - 435.900 CW/SSB, 435.910 FM
Uosat F 25 Oct 07:59:13 08:01:06 12° 305° (NW) 08:02:58 435.120 FM
AO-7 25 Oct 08:10:15 08:16:30 25° 310° (NW) 08:22:46 29.400 - 29.500 MHz
Saudisat 1A 25 Oct 08:14:28 08:18:43 51° 120° (ESE) 08:23:00 436.775 MHz
SO-67 25 Oct 08:23:11 08:26:34 50° 100° (E) 08:29:56 435.3500 MHz FM
HO-68 25 Oct 08:43:38 08:45:09 11° 84° (E) 08:46:40 435.675 MHz FM
STRAND 1 25 Oct 08:55:38 08:58:35 15° 271° (W) 09:01:33 ?
Hamsat 25 Oct 08:58:37 09:00:08 12° 300° (WNW) 09:01:38 145.90 MHz
JAS-2 25 Oct 09:40:38 09:44:22 15° 311° (NW) 09:48:09 435.800 - 435.900 CW/SSB, 435.910 FM
RS-15 25 Oct 09:52:20 10:01:30 31° 255° (WSW) 10:11:01 29.354 - 29.394 USB, Beacon 29.352 USB
Saudisat 1A 25 Oct 09:54:55 09:58:32 25° 320° (NW) 10:02:12 436.775 MHz
SO-67 25 Oct 09:57:55 09:59:07 12° 296° (WNW) 10:00:19 435.3500 MHz FM
MaSat-1 25 Oct 10:02:42 10:05:16 47° 246° (WSW) 10:07:38 437.345 MHz
HO-68 25 Oct 10:27:05 10:34:15 64° 103° (ESE) 10:41:22 435.675 MHz FM
UKube-1 25 Oct 10:31:55 10:35:37 26° 95° (E) 10:39:18 145.840 MHz, 145.915 MHz
FUNcube-1 25 Oct 11:12:04 11:15:46 28° 95° (E) 11:19:22 145.950 - 145.970 MHz USB
Oscar 11 25 Oct 11:12:39 11:16:58 68° 102° (ESE) 11:21:15 145.825 FM, Beacon 2401.500 USB
Sapphire 25 Oct 11:47:53 11:51:34 18° 36° (NE) 11:55:14 437.095 MHz 1200 baud AX-25 AFSK
ZACube-1 25 Oct 12:03:19 12:07:36 80° 285° (WNW) 12:11:47 437.345 MHz
KITSAT 1 25 Oct 12:04:35 12:11:34 34° 108° (ESE) 12:18:33 435.175 FM
UKube-1 25 Oct 12:07:56 12:11:49 32° 293° (WNW) 12:15:41 145.840 MHz, 145.915 MHz
PCSat 25 Oct 12:10:03 12:14:30 25° 42° (NE) 12:18:56 145.825 MHz
HO-68 25 Oct 12:15:29 12:21:29 30° 302° (WNW) 12:27:28 435.675 MHz FM
SO-50 25 Oct 12:20:03 12:21:04 11° 107° (ESE) 12:22:06 436.795 FM
Oscar 16 25 Oct 12:41:49 12:45:08 17° 59° (ENE) 12:48:26 437.025 USB, Beacon 2401.1428
FUNcube-1 25 Oct 12:48:28 12:52:06 28° 293° (WNW) 12:55:40 145.950 - 145.970 MHz USB
Oscar 11 25 Oct 12:50:28 12:52:36 14° 299° (WNW) 12:54:45 145.825 FM, Beacon 2401.500 USB
Uribyol 2 25 Oct 13:03:42 13:05:54 13° 55° (NE) 13:08:05 436.500 FM
ITAMSAT 1 25 Oct 13:09:35 13:12:01 14° 56° (NE) 13:14:28 435.822 SSB
ISS 25 Oct 13:24:06 13:27:13 39° 142° (SE) 13:30:22 145.800 FM
Sapphire 25 Oct 13:30:26 13:35:54 79° 58° (ENE) 13:41:20 437.095 MHz 1200 baud AX-25 AFSK
Oscar 19 25 Oct 13:33:12 13:38:04 45° 69° (ENE) 13:42:57 437.125 CW, 437.150 USB
Gurwin Techsat 1B 25 Oct 13:33:17 13:35:10 12° 54° (NE) 13:37:03 435.225 FM
JAS-1B 25 Oct 13:39:49 13:45:22 46° 68° (ENE) 13:50:45 435.800 - 435.900 CW/SSB
TMSAT-1 25 Oct 13:44:38 13:46:05 11° 54° (NE) 13:47:32 436.925 FM
Oscar 10/S400 25 Oct 13:50:26 14:06:34 29° 150° (SSE) 14:24:44 145.825 - 145.975 CW/USB, Beacon 145.810 USB
AO-27 25 Oct 13:52:48 13:57:19 31° 65° (ENE) 14:01:51 436.795 MHz FM
PCSat 25 Oct 13:53:00 13:58:23 66° 242° (WSW) 14:03:44 145.825 MHz
SO-50 25 Oct 13:56:18 14:00:49 87° 124° (SE) 14:05:29 436.795 FM
KITSAT 1 25 Oct 13:58:29 14:06:30 64° 309° (NW) 14:14:33 435.175 FM
AO-Echo 25 Oct 14:09:30 14:14:13 49° 70° (ENE) 14:19:07 ?
Oscar 16 25 Oct 14:18:45 14:23:55 72° 257° (WSW) 14:29:05 437.025 USB, Beacon 2401.1428
Uribyol 2 25 Oct 14:39:18 14:44:31 79° 74° (ENE) 14:49:46 436.500 FM
ITAMSAT 1 25 Oct 14:45:29 14:50:42 84° 74° (ENE) 14:55:58 435.822 SSB
Saudisat 1A 25 Oct 15:00:41 15:03:18 15° 32° (NNE) 15:05:54 436.775 MHz
ISS 25 Oct 15:00:44 15:03:55 41° 340° (NNW) 15:07:07 145.800 FM
Gurwin Techsat 1B 25 Oct 15:08:55 15:14:12 73° 73° (ENE) 15:19:31 435.225 FM
Oscar 19 25 Oct 15:13:25 15:17:36 25° 266° (W) 15:21:48 437.125 CW, 437.150 USB
Sapphire 25 Oct 15:15:23 15:18:38 16° 256° (WSW) 15:21:52 437.095 MHz 1200 baud AX-25 AFSK
UOSAT-12 25 Oct 15:16:40 15:21:12 56° 120° (ESE) 15:25:50 437.025 FM, 437.400 FM
TMSAT-1 25 Oct 15:19:46 15:25:01 68° 73° (ENE) 15:30:19 436.925 FM
AO-7 25 Oct 15:26:00 15:33:18 37° 56° (ENE) 15:40:37 29.400 - 29.500 MHz
JAS-1B 25 Oct 15:31:33 15:36:21 25° 266° (W) 15:41:00 435.800 - 435.900 CW/SSB
AO-27 25 Oct 15:31:52 15:36:42 38° 263° (W) 15:41:35 436.795 MHz FM
SO-50 25 Oct 15:38:47 15:42:01 19° 326° (NW) 15:45:20 436.795 FM
AO-Echo 25 Oct 15:49:33 15:53:17 22° 269° (W) 15:57:08 ?
Uosat F 25 Oct 15:55:52 15:59:54 25° 63° (ENE) 16:03:57 435.120 FM
KITSAT 1 25 Oct 15:57:27 16:03:38 23° 334° (NNW) 16:09:50 435.175 FM
Uribyol 2 25 Oct 16:21:52 16:24:36 14° 271° (W) 16:27:21 436.500 FM
JAS-2 25 Oct 16:25:07 16:29:12 18° 52° (NE) 16:33:34 435.800 - 435.900 CW/SSB, 435.910 FM
ITAMSAT 1 25 Oct 16:28:27 16:30:52 13° 272° (W) 16:33:18 435.822 SSB
ISS 25 Oct 16:38:19 16:41:10 25° 0° (N) 16:44:01 145.800 FM
Saudisat 1A 25 Oct 16:39:11 16:43:38 74° 53° (NE) 16:48:02 436.775 MHz
Gurwin Techsat 1B 25 Oct 16:51:35 16:54:44 16° 271° (W) 16:57:54 435.225 FM
UOSAT-12 25 Oct 16:57:45 17:01:40 26° 320° (NW) 17:05:38 437.025 FM, 437.400 FM
TMSAT-1 25 Oct 17:02:05 17:05:27 17° 270° (W) 17:08:50 436.925 FM
AO-7 25 Oct 17:17:36 17:25:44 60° 257° (WSW) 17:33:55 29.400 - 29.500 MHz
Uosat F 25 Oct 17:33:37 17:38:25 46° 261° (W) 17:43:17 435.120 FM
OPAL 25 Oct 17:38:28 17:41:11 15° 92° (E) 17:43:53 ?
KITSAT 1 25 Oct 17:57:46 18:02:34 16° 4° (N) 18:07:22 435.175 FM
JAS-2 25 Oct 18:07:06 18:13:07 87° 75° (ENE) 18:20:02 435.800 - 435.900 CW/SSB, 435.910 FM
ISS 25 Oct 18:15:12 18:18:25 43° 20° (NNE) 18:21:37 145.800 FM
Hamsat 25 Oct 18:15:32 18:19:42 69° 75° (ENE) 18:23:53 145.90 MHz
Saudisat 1A 25 Oct 18:20:23 18:22:37 14° 251° (WSW) 18:24:51 436.775 MHz
SO-67 25 Oct 18:58:03 19:00:48 23° 69° (ENE) 19:03:35 435.3500 MHz FM
HO-68 25 Oct 19:14:51 19:18:06 14° 46° (NE) 19:21:21 435.675 MHz FM
OPAL 25 Oct 19:15:39 19:20:37 72° 289° (WNW) 19:25:31 ?
AO-7 25 Oct 19:18:52 19:20:16 10° 277° (W) 19:21:41 29.400 - 29.500 MHz
STRAND 1 25 Oct 19:23:11 19:27:03 21° 92° (E) 19:30:53 ?
ISS 25 Oct 19:51:58 19:55:05 37° 219° (SW) 19:58:12 145.800 FM
KITSAT 1 25 Oct 19:54:15 20:01:09 29° 34° (NNE) 20:08:00 435.175 FM
Hamsat 25 Oct 19:54:48 19:56:07 11° 272° (W) 19:57:27 145.90 MHz
JAS-2 25 Oct 19:55:38 19:59:18 16° 276° (W) 20:03:13 435.800 - 435.900 CW/SSB, 435.910 FM
SO-67 25 Oct 20:30:58 20:33:43 22° 266° (W) 20:36:29 435.3500 MHz FM
SO-50 25 Oct 20:45:58 20:49:56 25° 39° (NE) 20:53:56 436.795 FM
OPAL 25 Oct 20:57:11 20:58:37 11° 308° (NW) 21:00:02 ?
HO-68 25 Oct 20:57:23 21:04:21 58° 67° (ENE) 21:11:22 435.675 MHz FM
STRAND 1 25 Oct 21:01:31 21:06:33 53° 290° (WNW) 21:11:32 ?
ZACube-1 25 Oct 21:27:47 21:29:54 13° 60° (ENE) 21:31:59 437.345 MHz
UKube-1 25 Oct 21:29:14 21:33:02 30° 67° (ENE) 21:36:52 145.840 MHz, 145.915 MHz
